Akron Canton, OH

3:00 AM EDT on April 23, 2017 (GMT -0400)
Akron-Canton Regional

Weather History for KCAK - September, 2011

Change the Weather History Date:

Thursday, September 8, 2011

  Actual Average Record
Temperature  
Mean Temperature 68 °F 66 °F  
Max Temperature 72 °F 76 °F 95 °F (1933)
Min Temperature 63 °F 56 °F 38 °F (1951)
Degree Days  
Heating Degree Days 0 2  
Month to date heating degree days 11 11  
Since 1 July heating degree days 11 31  
Cooling Degree Days 3 3  
Month to date cooling degree days 56 29  
Year to date cooling degree days 877 611  
Growing Degree Days 16 (Base 50)    
Moisture  
Dew Point 62 °F    
Average Humidity 83    
Maximum Humidity 93    
Minimum Humidity 73    
Precipitation  
Precipitation 0.07 in 0.12 in 2.31 in (2004)
Month to date precipitation 1.37 0.94  
Year to date precipitation 40.74 28.14  
Snow  
Snow 0.00 in 0.00 in - ()
Month to date snowfall 0.0 0.0  
Since 1 July snowfall 0.0 0.0  
Since 1 September snowfall 0.0 0.0  
Snow Depth 0.00 in    
Sea Level Pressure  
Sea Level Pressure 29.93 in    
Wind  
Wind Speed 5 mph (ESE)    
Max Wind Speed 13 mph    
Max Gust Speed 15 mph    
Visibility 5 miles    
Events Rain    
T = Trace of Precipitation, MM = Missing Value Source: NWS Daily Summary

Daily Weather History Graph

Daily Weather History Graph

Search for Another Location

Airport or City:

Trip Planner

Search our weather history database for the weather conditions in past years. The results will help you decide how hot, cold, wet, or windy it might be!

Date:

Astronomy

Sep. 08, 2011 Rise Set
Actual Time 6:59 AM EDT 7:47 PM EDT
Civil Twilight 6:31 AM EDT 8:14 PM EDT
Nautical Twilight 5:58 AM EDT 8:47 PM EDT
Astronomical Twilight 5:24 AM EDT 9:21 PM EDT
Moon 5:41 PM EDT (9/8) 3:14 AM EDT (9/8)
Length of Visible Light 13h 43m
Length of Day
12h 47m
Waxing Gibbous, 87% of the Moon is Illuminated
Sep 8
Waxing Gibbous
Sep 12
Full
Sep 20
Last Quarter
Sep 27
New
Oct 3
First Quarter

Hourly Weather History & Observations

Time (EDT) Temp. Dew Point Humidity Pressure Visibility Wind Dir Wind Speed Gust Speed Precip Events Conditions
12:51 AM 64.0 °F 61.0 °F 90% 29.89 in 10.0 mi SE 9.2 mph - 0.00 in   Mostly Cloudy
1:51 AM 64.0 °F 62.1 °F 93% 29.89 in 5.0 mi ESE 8.1 mph - N/A   Overcast
2:00 AM - - N/A% - - North - - N/A   Unknown
2:51 AM 63.0 °F 61.0 °F 93% 29.89 in 5.0 mi ESE 5.8 mph - N/A   Overcast
3:51 AM 63.0 °F 61.0 °F 93% 29.89 in 5.0 mi ESE 6.9 mph - N/A   Overcast
4:51 AM 63.0 °F 61.0 °F 93% 29.90 in 4.0 mi ESE 4.6 mph - N/A   Overcast
6:00 AM - - N/A% - - North - - N/A   Unknown
6:51 AM 63.0 °F 61.0 °F 93% 29.91 in 5.0 mi SE 5.8 mph - N/A   Overcast
7:17 AM 62.6 °F 60.8 °F 94% 29.93 in 3.0 mi ESE 5.8 mph - N/A   Overcast
7:51 AM 63.0 °F 61.0 °F 93% 29.93 in 3.0 mi ESE 5.8 mph - N/A   Overcast
8:31 AM 64.4 °F 60.8 °F 88% 29.95 in 3.0 mi ESE 8.1 mph - N/A   Overcast
8:51 AM 64.0 °F 61.0 °F 90% 29.94 in 3.0 mi SE 8.1 mph - N/A   Overcast
9:51 AM 64.9 °F 61.0 °F 87% 29.95 in 3.0 mi SE 6.9 mph - N/A   Overcast
10:29 AM 66.2 °F 60.8 °F 83% 29.97 in 3.0 mi SE 6.9 mph - N/A   Haze
10:51 AM 66.2 °F 60.8 °F 83% 29.98 in 6.0 mi ESE 8.1 mph - N/A   Haze
11:00 AM - - N/A% - - North - - N/A   Unknown
11:51 AM 68.0 °F 61.0 °F 78% 29.96 in 7.0 mi SSE 5.8 mph - N/A   Overcast
12:51 PM 70.0 °F 61.0 °F 73% 29.95 in 8.0 mi SSE 5.8 mph - N/A   Overcast
1:40 PM 71.6 °F 60.8 °F 69% 29.96 in 10.0 mi South 8.1 mph - N/A   Overcast
1:51 PM 70.0 °F 60.1 °F 71% 29.94 in 10.0 mi ESE 8.1 mph - N/A   Overcast
2:04 PM - - N/A% - 2.5 mi East 8.1 mph - N/A Rain Light Rain
2:51 PM 66.9 °F 63.0 °F 87% 29.95 in 5.0 mi East 6.9 mph - 0.03 in   Overcast
3:05 PM 66.2 °F 62.6 °F 88% 29.96 in 2.0 mi ESE 6.9 mph - 0.00 in Rain Light Rain
3:51 PM 68.0 °F 64.0 °F 87% 29.93 in 5.0 mi Variable 3.5 mph - 0.04 in   Mostly Cloudy
4:11 PM - - N/A% - - North - - N/A   Unknown
4:51 PM 70.0 °F 63.0 °F 78% 29.93 in 7.0 mi SE 3.5 mph - N/A   Mostly Cloudy
5:51 PM 70.0 °F 61.0 °F 73% 29.92 in 7.0 mi Calm Calm - N/A   Mostly Cloudy
6:51 PM 70.0 °F 62.1 °F 76% 29.92 in 7.0 mi NE 3.5 mph - N/A   Mostly Cloudy
7:51 PM 66.9 °F 63.0 °F 87% 29.93 in 6.0 mi NNE 3.5 mph - N/A   Mostly Cloudy
8:51 PM 66.0 °F 62.1 °F 87% 29.94 in 8.0 mi Calm Calm - N/A   Mostly Cloudy
9:51 PM 66.0 °F 64.0 °F 93% 29.95 in 5.0 mi North 4.6 mph - N/A   Overcast
10:51 PM 66.0 °F 63.0 °F 90% 29.94 in 3.0 mi NNE 4.6 mph - N/A   Mostly Cloudy
11:22 PM 64.4 °F 62.6 °F 94% 29.95 in 2.5 mi North 3.5 mph - N/A   Mostly Cloudy